Location: Boiro
(42.6475°N, 8.8834°W)
Time: 12:12:03
(UTC+02:00)

SL-8 DEB - Pass Details

Date: 11 July 2022
Orbit: 890 x 1013 km, 83.1° (Epoch: 16 August)

Event Time Altitude Azimuth Distance (km) Brightness Sun altitude
Rises 00:32:52 0° 351° (N) 3,565 ? -18.8°
Reaches altitude 10° 00:35:21 10° 351° (N) 2,605 ? -19.0°
Maximum altitude 00:41:16 84° 265° (W) 907 ? -19.6°
Enters shadow 00:44:06 32° 179° (S) 1,477 ? -19.8°
